User: anonymous   Login
Location: Unspecified
(52.4292°N, 19.3359°E)
Time: 06:17:04
(UTC+02:00)
Language:

SR - Orbit

View from above orbital plane
View from above orbital plane
View from above satellite
View from above satellite

Ground track
Ground track

The orbit data is extracted from the following two-line orbital elements,

1 00046U 60007B   24144.32842892  .00001452  00000-0  30051-3 0  9990
2 00046  66.6886 122.3764 0197675 141.4083 220.1349 14.51915379347283
Epoch (UTC): 23 May 2024 07:52:56
Eccentricity: 0.0197675
inclination: 66.6886°
perigee height: 579 km
apogee height: 860 km
right ascension of ascending node: 122.3764°
argument of perigee: 141.4083°
revolutions per day: 14.51915379
mean anomaly at epoch: 220.1349°
orbit number at epoch: 34728

The dashed part of the orbit path shows where the satellite is in the earth's shadow,  

DLR